Weather History for Florala, AL

Change the Weather History Date:

Sunday, November 25, 2012

  Actual Average (KCEW) Record (KCEW)
Temperature  
Mean Temperature 46 °F -  
Max Temperature 64 °F 68 °F 80 °F (1951)
Min Temperature 28 °F 40 °F 18 °F (1950)
Degree Days  
Heating Degree Days 19    
Moisture  
Dew Point 28 °F    
Average Humidity 60    
Maximum Humidity 89    
Minimum Humidity 19    
Precipitation  
Precipitation 0.00 in - - ()
Sea Level Pressure  
Sea Level Pressure 30.18 in    
Wind  
Wind Speed 1 mph (SSW)    
Max Wind Speed 5 mph    
Max Gust Speed -    
Visibility 10 miles    
Events      
Averages and records for this station are not official NWS values.
T = Trace of Precipitation, MM = Missing Value Source: NWS Daily Summary

Daily Weather History Graph

Daily Weather History Graph

Search for Another Location

Airport:

Trip Planner

Search our weather history database for the weather conditions in past years. The results will help you decide how hot, cold, wet, or windy it might be!

Date:

Astronomy

Nov. 25, 2012 Rise Set
Actual Time 6:21 AM CST 4:43 PM CST
Civil Twilight 5:55 AM CST 5:09 PM CST
Nautical Twilight 5:25 AM CST 5:39 PM CST
Astronomical Twilight 4:56 AM CST 6:08 PM CST
Moon 2:54 PM CST (11/25) 3:42 AM CST (11/25)
Length of Visible Light 11h 14m
Length of Day
10h 22m
Waxing Gibbous, 93% of the Moon is Illuminated
Nov 25
Waxing Gibbous
Nov 28
Full
Dec 6
Last Quarter
Dec 13
New
Dec 19
First Quarter

Hourly Weather History & Observations

Time (CST) Temp. Windchill Dew Point Humidity Pressure Visibility Wind Dir Wind Speed Gust Speed Precip Events Conditions
12:58 AM 36.0 °F - 28.0 °F 73% 30.17 in - Calm Calm - N/A   Clear
1:58 AM 33.1 °F 28.7 °F 28.0 °F 82% 30.17 in - North 4.6 mph - N/A   Clear
2:58 AM 33.1 °F - 28.9 °F 85% 30.17 in - Calm Calm - N/A   Clear
3:58 AM 30.9 °F - 27.0 °F 85% 30.17 in - Calm Calm - N/A   Clear
4:58 AM 30.9 °F - 27.0 °F 85% 30.19 in - Calm Calm - N/A   Clear
5:58 AM 28.9 °F - 26.1 °F 89% 30.20 in - Calm Calm - N/A   Clear
6:58 AM 32.0 °F - 28.0 °F 85% 30.22 in - Calm Calm - N/A   Clear
7:58 AM 42.1 °F - 26.1 °F 53% 30.25 in - Calm Calm - N/A   Clear
8:58 AM 46.9 °F - 25.0 °F 42% 30.26 in - ESE 4.6 mph - N/A   Clear
9:58 AM 53.1 °F - 24.1 °F 32% 30.26 in 10.0 mi ENE 4.6 mph - N/A   Clear
10:58 AM 55.0 °F - 23.0 °F 29% 30.23 in 10.0 mi Calm Calm - N/A   Clear
11:58 AM 59.0 °F - 21.9 °F 24% 30.19 in 10.0 mi Calm Calm - N/A   Clear
12:58 PM 61.0 °F - 21.0 °F 21% 30.16 in 10.0 mi Calm Calm - N/A   Clear
1:58 PM 63.0 °F - 23.0 °F 22% 30.15 in 10.0 mi SW 4.6 mph - N/A   Clear
2:58 PM 64.0 °F - 21.0 °F 19% 30.14 in 10.0 mi Calm Calm - N/A   Clear
3:58 PM 60.1 °F - 26.1 °F 27% 30.14 in 10.0 mi Calm Calm - N/A   Clear
4:58 PM 51.1 °F - 33.1 °F 50% 30.14 in 10.0 mi Calm Calm - N/A   Clear
5:58 PM 45.0 °F - 35.1 °F 68% 30.15 in 10.0 mi Calm Calm - N/A   Clear
6:58 PM 42.1 °F 39.2 °F 33.1 °F 70% 30.18 in 10.0 mi SW 4.6 mph - N/A   Clear
7:58 PM 39.9 °F 37.8 °F 33.1 °F 77% 30.18 in - SW 3.5 mph - N/A   Clear
8:58 PM 39.9 °F - 33.1 °F 77% 30.18 in - Calm Calm - N/A   Clear
9:58 PM 39.9 °F - 33.1 °F 77% 30.18 in - Calm Calm - N/A   Clear
10:58 PM 37.0 °F - 32.0 °F 82% 30.17 in - Calm Calm - N/A   Clear
11:58 PM 37.9 °F - 33.1 °F 83% 30.17 in - Calm Calm - N/A   Clear